date_time,T_room,P_room,CO2_raw,corr_int,corr_slope,temp,CO2_scaled,flow_rate,dTdt,fraction,ug_frac,ug_sum
1:24:26 PM,30.505,100.97,2.4,0,1.001075,150.076299,2.4,35,4.632179,1,1.052548,1.052548
1:24:27 PM,30.505,100.97,2.3,0,1.001075,150.117728,2.3,35,4.624072,0,0,0
1:24:28 PM,30.505,100.97,2.4,0,1.001075,150.182637,2.4,35,4.608551,1,0.000657,0.000657
1:24:29 PM,30.505,100.97,1.9,0,1.001075,150.285447,1.9,35,4.612551,1,0.001275,0.001275
1:24:30 PM,30.506,100.97,1.6,0,1.001075,150.45006,1.6,35,4.58507,1,0.001729,0.001729
1:24:31 PM,30.506,100.97,1.7,0,1.001075,150.463774,1.7,35,4.525557,1,0.002207,0.002207
1:24:32 PM,30.506,100.97,1.1,0,1.001075,150.556413,1.1,35,4.57092,1,0.002574,0.002574
1:24:33 PM,30.506,100.97,0.8,0,1.001075,150.632929,0.8,35,4.620357,1,0.002832,0.002832
1:24:34 PM,30.506,100.97,1.2,0,1.001075,150.718217,1.2,35,4.592791,1,0.003094,0.003094
1:24:35 PM,30.506,100.969,1.4,0,1.001075,150.792619,1.4,35,4.666128,1,0.003497,0.003497
1:24:36 PM,30.507,100.969,1.2,0,1.001075,150.847361,1.2,35,4.638071,1,0.003858,0.003858
1:24:37 PM,30.507,100.969,2,0,1.001075,150.942549,2,35,4.607767,1,0.004317,0.004317
1:24:38 PM,30.507,100.969,2.1,0,1.001075,151.001121,2.1,35,4.62858,1,0.0049,0.0049
1:24:39 PM,30.507,100.969,1.9,0,1.001075,151.1314,1.9,35,4.601426,1,0.005506,0.005506
1:24:40 PM,30.508,100.968,2.5,0,1.001075,151.212175,2.5,35,4.724206,1,0.006185,0.006185
1:24:41 PM,30.508,100.968,2.7,0,1.001075,151.219533,2.7,35,4.729535,1,0.006896,0.006896
1:24:42 PM,30.508,100.968,2.6,0,1.001075,151.29183,2.6,35,4.69368,1,0.007679,0.007679
1:24:43 PM,30.508,100.968,1.9,0,1.001075,151.420711,1.9,35,4.71608,1,0.008325,0.008325
1:24:44 PM,30.508,100.968,1.7,0,1.001075,151.459336,1.7,35,4.80121,1,0.008823,0.008823
1:24:45 PM,30.509,100.968,1.9,0,1.001075,151.534467,1.9,35,4.791293,1,0.009369,0.009369
1:24:46 PM,30.509,100.967,1.6,0,1.001075,151.646107,1.6,35,4.787816,1,0.009812,0.009812
1:24:47 PM,30.509,100.967,1.9,0,1.001075,151.722657,1.9,35,4.813068,1,0.010301,0.010301
1:24:48 PM,30.509,100.967,2,0,1.001075,151.810809,2,35,4.802522,1,0.010831,0.010831
1:24:49 PM,30.509,100.967,2,0,1.001075,151.948491,2,35,4.848643,1,0.011434,0.011434
1:24:50 PM,30.51,100.967,1.9,0,1.001075,151.98571,1.9,35,4.736845,1,0.012028,0.012028
1:24:51 PM,30.51,100.967,1.5,0,1.001075,152.083648,1.5,35,4.824551,1,0.012497,0.012497
1:24:52 PM,30.51,100.967,1.2,0,1.001075,152.185535,1.2,35,4.824069,1,0.01288,0.01288
1:24:53 PM,30.51,100.967,2.1,0,1.001075,152.259981,2.1,35,4.919687,1,0.013302,0.013302
1:24:54 PM,30.51,100.967,2,0,1.001075,152.314048,2,35,4.969897,1,0.013861,0.013861
1:24:55 PM,30.51,100.967,1.5,0,1.001075,152.298909,1.5,35,4.930036,1,0.014409,0.014409
1:24:56 PM,30.511,100.967,1.6,0,1.001075,152.466482,1.6,35,4.914728,1,0.01481,0.01481
1:24:57 PM,30.511,100.968,1.8,0,1.001075,152.561316,1.8,35,4.901781,1,0.015293,0.015293
1:24:58 PM,30.511,100.967,1.7,0,1.001075,152.633651,1.7,35,4.945517,1,0.015768,0.015768
1:24:59 PM,30.511,100.968,1.9,0,1.001075,152.72042,1.9,35,4.94678,1,0.016248,0.016248
1:25:00 PM,30.511,100.968,2.1,0,1.001075,152.724666,2.1,35,4.914009,1,0.016815,0.016815
1:25:01 PM,30.512,100.968,2.1,0,1.001075,152.810316,2.1,35,4.818393,1,0.017428,0.017428
1:25:02 PM,30.512,100.968,2.5,0,1.001075,152.953708,2.5,35,4.819727,1,0.018038,0.018038
1:25:03 PM,30.512,100.968,2.3,0,1.001075,153.005672,2.3,35,4.88405,1,0.018749,0.018749
1:25:04 PM,30.512,100.968,2,0,1.001075,152.98387,2,35,4.810908,1,0.019346,0.019346
1:25:05 PM,30.512,100.968,2,0,1.001075,153.182066,2,35,4.804811,1,0.019938,0.019938
1:25:06 PM,30.513,100.968,2.4,0,1.001075,153.203866,2.4,35,4.757691,1,0.020551,0.020551
1:25:07 PM,30.513,100.968,2.6,0,1.001075,153.316286,2.6,35,4.777572,1,0.021244,0.021244
1:25:08 PM,30.513,100.968,3.2,0,1.001075,153.359183,3.2,35,4.756459,1,0.02206,0.02206
1:25:09 PM,30.513,100.969,2.8,0,1.001075,153.410737,2.8,35,4.703915,1,0.022936,0.022936
1:25:10 PM,30.513,100.969,2.6,0,1.001075,153.496532,2.6,35,4.619619,1,0.023675,0.023675
1:25:11 PM,30.514,100.969,2.3,0,1.001075,153.606844,2.3,35,4.665977,1,0.024335,0.024335
1:25:12 PM,30.514,100.97,2.8,0,1.001075,153.697888,2.8,35,4.604868,1,0.025086,0.025086
1:25:13 PM,30.514,100.97,2.3,0,1.001075,153.754814,2.3,35,4.60889,1,0.025792,0.025792
1:25:14 PM,30.514,100.969,2.4,0,1.001075,153.859184,2.4,35,4.621217,1,0.026442,0.026442
1:25:15 PM,30.515,100.97,2.5,0,1.001075,153.916821,2.5,35,4.588159,1,0.027151,0.027151
1:25:16 PM,30.515,100.97,2.4,0,1.001075,154.070763,2.4,35,4.613866,1,0.027878,0.027878
1:25:17 PM,30.515,100.97,2.7,0,1.001075,154.028564,2.7,35,4.642107,1,0.028608,0.028608
1:25:18 PM,30.515,100.97,2.6,0,1.001075,154.152628,2.6,35,4.685796,1,0.029356,0.029356
1:25:19 PM,30.515,100.97,2.7,0,1.001075,154.266502,2.7,35,4.761058,1,0.030135,0.030135
1:25:20 PM,30.516,100.97,2.8,0,1.001075,154.318903,2.8,35,4.659142,1,0.030967,0.030967
1:25:21 PM,30.516,100.97,3,0,1.001075,154.353326,3,35,4.667503,1,0.031741,0.031741
1:25:22 PM,30.516,100.97,3.3,0,1.001075,154.465793,3.3,35,4.590102,1,0.032632,0.032632
1:25:23 PM,30.516,100.97,3.6,0,1.001075,154.540011,3.6,35,4.654389,1,0.033604,0.033604
1:25:24 PM,30.517,100.969,2.6,0,1.001075,154.717507,2.6,35,4.709025,1,0.03449,0.03449
1:25:25 PM,30.517,100.969,2.6,0,1.001075,154.750935,2.6,35,4.695887,1,0.035229,0.035229
1:25:26 PM,30.517,100.97,2.8,0,1.001075,154.795562,2.8,35,4.680544,1,0.036042,0.036042
1:25:27 PM,30.517,100.969,2.5,0,1.001075,154.985399,2.5,35,4.757618,1,0.036814,0.036814
1:25:28 PM,30.517,100.969,2.6,0,1.001075,155.01983,2.6,35,4.85283,1,0.037523,0.037523
1:25:29 PM,30.518,100.969,2.5,0,1.001075,155.024075,2.5,35,4.821761,1,0.038222,0.038222
1:25:30 PM,30.518,100.969,2.8,0,1.001075,155.133031,2.8,35,4.790579,1,0.038938,0.038938
1:25:31 PM,30.518,100.969,2.2,0,1.001075,155.213929,2.2,35,4.792867,1,0.039681,0.039681
1:25:32 PM,30.519,100.969,2.8,0,1.001075,155.267348,2.8,35,4.851463,1,0.040399,0.040399
1:25:33 PM,30.519,100.969,2.1,0,1.001075,155.391178,2.1,35,4.946448,1,0.041108,0.041108
1:25:34 PM,30.519,100.969,2.9,0,1.001075,155.427028,2.9,35,4.843131,1,0.041773,0.041773
1:25:35 PM,30.519,100.969,3.3,0,1.001075,155.558527,3.3,35,4.893484,1,0.042625,0.042625
1:25:36 PM,30.52,100.969,2.4,0,1.001075,155.554279,2.4,35,4.878955,1,0.043481,0.043481
1:25:37 PM,30.52,100.969,2.3,0,1.001075,155.647098,2.3,35,4.864588,1,0.044117,0.044117
1:25:38 PM,30.52,100.969,1.9,0,1.001075,155.700943,1.9,35,4.818602,1,0.044687,0.044687
1:25:39 PM,30.52,100.969,2.4,0,1.001075,155.786687,2.4,35,4.733898,1,0.045278,0.045278
1:25:40 PM,30.521,100.969,2.3,0,1.001075,155.939318,2.3,35,4.608924,1,0.045987,0.045987
1:25:41 PM,30.521,100.969,2.4,0,1.001075,155.941442,2.4,35,4.58298,1,0.046643,0.046643
1:25:42 PM,30.521,100.969,2.8,0,1.001075,156.059637,2.8,35,4.621713,1,0.047382,0.047382
1:25:43 PM,30.521,100.969,3.1,0,1.001075,156.14893,3.1,35,4.597125,1,0.048239,0.048239
1:25:44 PM,30.522,100.97,2.7,0,1.001075,156.079336,2.7,35,4.514036,1,0.049051,0.049051
1:25:45 PM,30.522,100.969,2.3,0,1.001075,156.261179,2.3,35,4.552465,1,0.049762,0.049762
1:25:46 PM,30.522,100.969,2.3,0,1.001075,156.321281,2.3,35,4.581492,1,0.050428,0.050428
1:25:47 PM,30.522,100.969,2.3,0,1.001075,156.497892,2.3,35,4.676203,1,0.051111,0.051111
1:25:48 PM,30.523,100.97,2.5,0,1.001075,156.500016,2.5,35,4.642815,1,0.051797,0.051797
1:25:49 PM,30.523,100.969,2.6,0,1.001075,156.56225,2.6,35,4.733151,1,0.052454,0.052454
1:25:50 PM,30.523,100.969,2.2,0,1.001075,156.619942,2.2,35,4.636328,1,0.053147,0.053147
1:25:51 PM,30.523,100.969,2.4,0,1.001075,156.7712,2.4,35,4.659174,1,0.053785,0.053785
1:25:52 PM,30.523,100.969,2,0,1.001075,156.831022,2,35,4.652992,1,0.054398,0.054398
1:25:53 PM,30.524,100.969,1.9,0,1.001075,156.955211,1.9,35,4.610973,1,0.054953,0.054953
1:25:54 PM,30.524,100.969,2.1,0,1.001075,157.074156,2.1,35,4.659672,1,0.055496,0.055496
1:25:55 PM,30.524,100.969,2.5,0,1.001075,157.13286,2.5,35,4.695246,1,0.056133,0.056133
1:25:56 PM,30.524,100.97,2.4,0,1.001075,157.163483,2.4,35,4.695191,1,0.056835,0.056835
1:25:57 PM,30.525,100.97,2.7,0,1.001075,157.228979,2.7,35,4.796628,1,0.057572,0.057572
1:25:58 PM,30.525,100.97,2.8,0,1.001075,157.309518,2.8,35,4.886343,1,0.058387,0.058387
1:25:59 PM,30.525,100.97,2.8,0,1.001075,157.409767,2.8,35,4.856451,1,0.059196,0.059196
1:26:00 PM,30.525,100.97,2.8,0,1.001075,157.451312,2.8,35,4.853322,1,0.059994,0.059994
1:26:01 PM,30.526,100.969,2.8,0,1.001075,157.543482,2.8,35,4.791509,1,0.060768,0.060768
1:26:02 PM,30.526,100.969,2.2,0,1.001075,157.672659,2.2,35,4.90554,1,0.06149,0.06149
1:26:03 PM,30.526,100.97,2.5,0,1.001075,157.680744,2.5,35,4.931802,1,0.062104,0.062104
1:26:04 PM,30.526,100.97,2.5,0,1.001075,157.864101,2.5,35,4.922441,1,0.062836,0.062836
1:26:05 PM,30.526,100.969,2.7,0,1.001075,157.919987,2.7,35,5.026018,1,0.063533,0.063533
1:26:06 PM,30.527,100.97,2.9,0,1.001075,157.956994,2.9,35,5.016972,1,0.064384,0.064384
1:26:07 PM,30.527,100.97,2.7,0,1.001075,158.03897,2.7,35,4.996669,1,0.065193,0.065193
1:26:08 PM,30.527,100.97,2.6,0,1.001075,158.134702,2.6,35,4.88205,1,0.065896,0.065896
1:26:09 PM,30.527,100.969,2.2,0,1.001075,158.221642,2.2,35,4.794805,1,0.066558,0.066558
1:26:10 PM,30.527,100.969,1.7,0,1.001075,158.210013,1.7,35,4.754972,1,0.067088,0.067088
1:26:11 PM,30.528,100.969,1.8,0,1.001075,158.28291,1.8,35,4.634278,1,0.067636,0.067636
1:26:12 PM,30.528,100.97,2.2,0,1.001075,158.358516,2.2,35,4.642294,1,0.068249,0.068249
1:26:13 PM,30.528,100.969,1.9,0,1.001075,158.538081,1.9,35,4.646123,1,0.068836,0.068836
1:26:14 PM,30.528,100.969,2.5,0,1.001075,158.524327,2.5,35,4.580679,1,0.069456,0.069456
1:26:15 PM,30.528,100.969,2.6,0,1.001075,158.60986,2.6,35,4.520016,1,0.070158,0.070158
1:26:16 PM,30.529,100.969,2.7,0,1.001075,158.700358,2.7,35,4.488346,1,0.07092,0.07092
1:26:17 PM,30.529,100.969,2.6,0,1.001075,158.699649,2.6,35,4.421738,1,0.071702,0.071702
1:26:18 PM,30.529,100.969,2.6,0,1.001075,158.82108,2.6,35,4.390446,1,0.072462,0.072462
1:26:19 PM,30.529,100.969,2.1,0,1.001075,158.909456,2.1,35,4.415298,1,0.073102,0.073102
1:26:20 PM,30.529,100.969,2.6,0,1.001075,159.018556,2.6,35,4.404384,1,0.073807,0.073807
1:26:21 PM,30.53,100.969,2.5,0,1.001075,159.13091,2.5,35,4.452283,1,0.074481,0.074481
1:26:22 PM,30.53,100.969,2.4,0,1.001075,159.134035,2.4,35,4.4211,1,0.075166,0.075166
1:26:23 PM,30.53,100.969,2.2,0,1.001075,159.23618,2.2,35,4.391846,1,0.075828,0.075828
1:26:24 PM,30.53,100.969,1.8,0,1.001075,159.356214,1.8,35,4.422845,1,0.076381,0.076381
1:26:25 PM,30.53,100.968,1.7,0,1.001075,159.359341,1.7,35,4.471538,1,0.076863,0.076863
1:26:26 PM,30.531,100.968,2.1,0,1.001075,159.481922,2.1,35,4.504114,1,0.077413,0.077413
1:26:27 PM,30.531,100.968,2.5,0,1.001075,159.527329,2.5,35,4.50912,1,0.078043,0.078043
1:26:28 PM,30.531,100.968,2,0,1.001075,159.59175,2,35,4.543241,1,0.078696,0.078696
1:26:29 PM,30.531,100.968,1.8,0,1.001075,159.637157,1.8,35,4.489207,1,0.079232,0.079232
1:26:30 PM,30.531,100.968,2.5,0,1.001075,159.716051,2.5,35,4.511743,1,0.079812,0.079812
1:26:31 PM,30.532,100.968,2.4,0,1.001075,159.805161,2.4,35,4.425665,1,0.080556,0.080556
1:26:32 PM,30.532,100.967,3.2,0,1.001075,159.838228,3.2,35,4.404324,1,0.081326,0.081326
1:26:33 PM,30.532,100.968,2.6,0,1.001075,159.948486,2.6,35,4.323491,1,0.082139,0.082139
1:26:34 PM,30.532,100.968,3.2,0,1.001075,160.051655,3.2,35,4.409257,1,0.082973,0.082973
1:26:35 PM,30.533,100.968,2.5,0,1.001075,160.103743,2.5,35,4.521634,1,0.083752,0.083752
1:26:36 PM,30.533,100.967,3.4,0,1.001075,160.1879,3.4,35,4.516579,1,0.084559,0.084559
1:26:37 PM,30.533,100.967,3.4,0,1.001075,160.206917,3.4,35,4.477525,1,0.085508,0.085508
1:26:38 PM,30.533,100.968,3.8,0,1.001075,160.320022,3.8,35,4.508202,1,0.086489,0.086489
1:26:39 PM,30.533,100.968,4,0,1.001075,160.335497,4,35,4.506959,1,0.08762,0.08762
1:26:40 PM,30.534,100.968,4.1,0,1.001075,160.440095,4.1,35,4.459819,1,0.088742,0.088742
1:26:41 PM,30.534,100.968,3.8,0,1.001075,160.541863,3.8,35,4.366958,1,0.089847,0.089847
1:26:42 PM,30.534,100.968,3.6,0,1.001075,160.550665,3.6,35,4.271268,1,0.09088,0.09088
1:26:43 PM,30.534,100.968,3.1,0,1.001075,160.705658,3.1,35,4.369295,1,0.091856,0.091856
1:26:44 PM,30.534,100.968,3,0,1.001075,160.759883,3,35,4.467018,1,0.092775,0.092775
1:26:45 PM,30.535,100.968,3.1,0,1.001075,160.866333,3.1,35,4.408954,1,0.093645,0.093645
1:26:46 PM,30.535,100.968,3.2,0,1.001075,160.886354,3.2,35,4.448121,1,0.094509,0.094509
1:26:47 PM,30.535,100.968,2.3,0,1.001075,160.996936,2.3,35,4.413575,1,0.095288,0.095288
1:26:48 PM,30.535,100.968,2.2,0,1.001075,161.055421,2.2,35,4.415587,1,0.09593,0.09593
1:26:49 PM,30.536,100.968,2.8,0,1.001075,161.10014,2.8,35,4.408358,1,0.096641,0.096641
1:26:50 PM,30.536,100.968,2.1,0,1.001075,161.266088,2.1,35,4.466393,1,0.097267,0.097267
1:26:51 PM,30.536,100.968,2,0,1.001075,161.274182,2,35,4.501703,1,0.097836,0.097836
1:26:52 PM,30.536,100.968,2.6,0,1.001075,161.457744,2.6,35,4.42411,1,0.098441,0.098441
1:26:53 PM,30.536,100.968,2.8,0,1.001075,161.444686,2.8,35,4.445946,1,0.099205,0.099205
1:26:54 PM,30.537,100.968,3.3,0,1.001075,161.570474,3.3,35,4.49094,1,0.100037,0.100037
1:26:55 PM,30.537,100.968,3.2,0,1.001075,161.647701,3.2,35,4.574153,1,0.10096,0.10096
1:26:56 PM,30.537,100.968,3,0,1.001075,161.676531,3,35,4.602699,1,0.101856,0.101856
1:26:57 PM,30.537,100.968,1.9,0,1.001075,161.769531,1.9,35,4.620136,1,0.102548,0.102548
1:26:58 PM,30.538,100.968,2,0,1.001075,161.817098,2,35,4.667163,1,0.103071,0.103071
1:26:59 PM,30.538,100.968,2.4,0,1.001075,161.84138,2.4,35,4.619591,1,0.10367,0.10367
1:27:00 PM,30.538,100.968,3,0,1.001075,161.98521,3,35,4.558481,1,0.10442,0.10442
1:27:01 PM,30.538,100.968,3.1,0,1.001075,162.066575,3.1,35,4.619291,1,0.105276,0.105276
1:27:02 PM,30.539,100.968,3.1,0,1.001075,162.144106,3.1,35,4.580979,1,0.106137,0.106137
1:27:03 PM,30.539,100.968,3,0,1.001075,162.287527,3,35,4.524835,1,0.107004,0.107004
1:27:04 PM,30.539,100.968,2.6,0,1.001075,162.286817,2.6,35,4.540849,1,0.107806,0.107806
1:27:05 PM,30.539,100.968,2.4,0,1.001075,162.389349,2.4,35,4.653551,1,0.108545,0.108545
1:27:06 PM,30.539,100.968,2.3,0,1.001075,162.547262,2.3,35,4.689513,1,0.109212,0.109212
1:27:07 PM,30.54,100.968,3,0,1.001075,162.499982,3,35,4.689934,1,0.109928,0.109928
1:27:08 PM,30.54,100.969,2.7,0,1.001075,162.6339,2.7,35,4.763012,1,0.110729,0.110729
1:27:09 PM,30.54,100.968,3.1,0,1.001075,162.709733,3.1,35,4.786416,1,0.111499,0.111499
1:27:10 PM,30.54,100.969,3.3,0,1.001075,162.852759,3.3,35,4.793895,1,0.112378,0.112378
1:27:11 PM,30.541,100.969,3.3,0,1.001075,162.87008,3.3,35,4.70895,1,0.113383,0.113383
1:27:12 PM,30.541,100.969,3,0,1.001075,162.908147,3,35,4.61055,1,0.11425,0.11425
1:27:13 PM,30.541,100.968,3.5,0,1.001075,163.026887,3.5,35,4.697493,1,0.115173,0.115173
1:27:14 PM,30.542,100.969,3.6,0,1.001075,163.052598,3.6,35,4.696329,1,0.116162,0.116162
1:27:15 PM,30.542,100.969,3.7,0,1.001075,163.17986,3.7,35,4.667915,1,0.117165,0.117165
1:27:16 PM,30.542,100.969,3.4,0,1.001075,163.330712,3.4,35,4.752809,1,0.118176,0.118176
1:27:17 PM,30.542,100.969,3.4,0,1.001075,163.322614,3.4,35,4.774663,1,0.119132,0.119132
1:27:18 PM,30.542,100.969,3.9,0,1.001075,163.411108,3.9,35,4.710669,1,0.120153,0.120153
1:27:19 PM,30.543,100.969,3.3,0,1.001075,163.387816,3.3,35,4.578622,1,0.121189,0.121189
1:27:20 PM,30.543,100.969,2.5,0,1.001075,163.531996,2.5,35,4.604283,1,0.12197,0.12197
1:27:21 PM,30.543,100.969,3,0,1.001075,163.634271,3,35,4.661493,1,0.122708,0.122708
1:27:22 PM,30.543,100.969,2.4,0,1.001075,163.681442,2.4,35,4.649135,1,0.123485,0.123485
1:27:23 PM,30.544,100.969,2,0,1.001075,163.738551,2,35,4.5695,1,0.124122,0.124122
1:27:24 PM,30.544,100.969,2.4,0,1.001075,163.872517,2.4,35,4.636749,1,0.124721,0.124721
1:27:25 PM,30.544,100.969,2.2,0,1.001075,163.943404,2.2,35,4.65946,1,0.125408,0.125408
1:27:26 PM,30.545,100.969,1.5,0,1.001075,163.941276,1.5,35,4.650988,1,0.125907,0.125907
1:27:27 PM,30.545,100.969,1.5,0,1.001075,164.038885,1.5,35,4.574296,1,0.126341,0.126341
1:27:28 PM,30.545,100.969,1.3,0,1.001075,164.115745,1.3,35,4.555913,1,0.126723,0.126723
1:27:29 PM,30.545,100.969,1.5,0,1.001075,164.15808,1.5,35,4.510568,1,0.127108,0.127108
1:27:30 PM,30.546,100.969,1.6,0,1.001075,164.337947,1.6,35,4.438803,1,0.127526,0.127526
1:27:31 PM,30.546,100.969,1.6,0,1.001075,164.352728,1.6,35,4.516688,1,0.127964,0.127964
1:27:32 PM,30.546,100.969,2.1,0,1.001075,164.403165,2.1,35,4.540646,1,0.128449,0.128449
1:27:33 PM,30.546,100.97,3,0,1.001075,164.464125,3,35,4.460322,1,0.129113,0.129113
1:27:34 PM,30.546,100.969,3,0,1.001075,164.621706,3,35,4.384565,1,0.129915,0.129915
1:27:35 PM,30.547,100.969,3.2,0,1.001075,164.679538,3.2,35,4.408466,1,0.130804,0.130804
1:27:36 PM,30.547,100.969,3.2,0,1.001075,164.695741,3.2,35,4.486458,1,0.131729,0.131729
1:27:37 PM,30.547,100.97,2.7,0,1.001075,164.774746,2.7,35,4.566498,1,0.132536,0.132536
1:27:38 PM,30.547,100.97,2.9,0,1.001075,164.817087,2.9,35,4.528779,1,0.133331,0.133331
1:27:39 PM,30.547,100.969,3.3,0,1.001075,164.927077,3.3,35,4.502508,1,0.134189,0.134189
1:27:40 PM,30.548,100.97,2.9,0,1.001075,164.992305,2.9,35,4.473978,1,0.135089,0.135089
1:27:41 PM,30.548,100.97,3.1,0,1.001075,165.116082,3.1,35,4.511324,1,0.135916,0.135916
1:27:42 PM,30.548,100.969,2.6,0,1.001075,165.09562,2.6,35,4.4519,1,0.136733,0.136733
1:27:43 PM,30.548,100.969,2.1,0,1.001075,165.191963,2.1,35,4.394147,1,0.137386,0.137386
1:27:44 PM,30.549,100.969,1.8,0,1.001075,165.312195,1.8,35,4.338463,1,0.137955,0.137955
1:27:45 PM,30.549,100.97,1.6,0,1.001075,165.413388,1.6,35,4.373877,1,0.138428,0.138428
1:27:46 PM,30.549,100.97,2.6,0,1.001075,165.484305,2.6,35,4.347905,1,0.138978,0.138978
1:27:47 PM,30.549,100.97,1.9,0,1.001075,165.526235,1.9,35,4.332475,1,0.139603,0.139603
1:27:48 PM,30.55,100.97,1.5,0,1.001075,165.58266,1.5,35,4.314846,1,0.140037,0.140037
1:27:49 PM,30.55,100.97,1.6,0,1.001075,165.742124,1.6,35,4.204903,1,0.140442,0.140442
1:27:50 PM,30.55,100.97,1.5,0,1.001075,165.764303,1.5,35,4.280276,1,0.140892,0.140892
1:27:51 PM,30.55,100.97,1.4,0,1.001075,165.841196,1.4,35,4.423533,1,0.141268,0.141268
1:27:52 PM,30.55,100.97,2,0,1.001075,165.759332,2,35,4.380913,1,0.141766,0.141766
1:27:53 PM,30.551,100.97,1.4,0,1.001075,165.948082,1.4,35,4.314814,1,0.142252,0.142252
1:27:54 PM,30.551,100.97,1.9,0,1.001075,165.979493,1.9,35,4.378694,1,0.142745,0.142745
1:27:55 PM,30.551,100.97,2.8,0,1.001075,166.032373,2.8,35,4.348791,1,0.143433,0.143433
1:27:56 PM,30.551,100.97,2.8,0,1.001075,166.064787,2.8,35,4.366079,1,0.144193,0.144193
1:27:57 PM,30.551,100.97,3.1,0,1.001075,166.121929,3.1,35,4.28191,1,0.145035,0.145035
1:27:58 PM,30.552,100.969,3.3,0,1.001075,166.179783,3.3,35,4.227038,1,0.145903,0.145903
1:27:59 PM,30.552,100.969,3.2,0,1.001075,166.308858,3.2,35,4.241669,1,0.146809,0.146809
1:28:00 PM,30.552,100.969,2.9,0,1.001075,166.351214,2.9,35,4.264728,1,0.147598,0.147598
1:28:01 PM,30.552,100.969,2.9,0,1.001075,166.404518,2.9,35,4.20744,1,0.148376,0.148376
1:28:02 PM,30.552,100.969,2.5,0,1.001075,166.418596,2.5,35,4.105727,1,0.149094,0.149094
1:28:03 PM,30.553,100.969,2.9,0,1.001075,166.573119,2.9,35,4.034943,1,0.14985,0.14985
1:28:04 PM,30.553,100.969,2.7,0,1.001075,166.599563,2.7,35,3.961293,1,0.150589,0.150589
1:28:05 PM,30.553,100.969,2.5,0,1.001075,166.745987,2.5,35,3.936574,1,0.151317,0.151317
1:28:06 PM,30.553,100.969,2.6,0,1.001075,166.747408,2.6,35,3.942391,1,0.152037,0.152037
1:28:07 PM,30.553,100.969,2.4,0,1.001075,166.811954,2.4,35,3.994762,1,0.152786,0.152786
1:28:08 PM,30.554,100.969,2,0,1.001075,166.9075,2,35,3.897308,1,0.153466,0.153466
1:28:09 PM,30.554,100.969,2.3,0,1.001075,166.848928,2.3,35,3.844511,1,0.154066,0.154066
1:28:10 PM,30.554,100.969,2.2,0,1.001075,167.034175,2.2,35,3.7641,1,0.154692,0.154692
1:28:11 PM,30.554,100.969,2.7,0,1.001075,167.073698,2.7,35,3.825134,1,0.15538,0.15538
1:28:12 PM,30.554,100.969,2.9,0,1.001075,167.154167,2.9,35,3.769609,1,0.156199,0.156199
1:28:13 PM,30.555,100.969,2.7,0,1.001075,167.243035,2.7,35,3.652433,1,0.157026,0.157026
1:28:14 PM,30.555,100.969,3.1,0,1.001075,167.29706,3.1,35,3.692887,1,0.1578,0.1578
1:28:15 PM,30.555,100.969,2.9,0,1.001075,167.369008,2.9,35,3.775034,1,0.15865,0.15865
1:28:16 PM,30.555,100.969,2.5,0,1.001075,167.402852,2.5,35,3.711624,1,0.159351,0.159351
1:28:17 PM,30.555,100.969,2.4,0,1.001075,167.522143,2.4,35,3.715461,1,0.160032,0.160032
1:28:18 PM,30.556,100.969,2.6,0,1.001075,167.605046,2.6,35,3.820181,1,0.160792,0.160792
1:28:19 PM,30.556,100.969,3,0,1.001075,167.678126,3,35,3.908262,1,0.161555,0.161555
1:28:20 PM,30.556,100.969,3.4,0,1.001075,167.742685,3.4,35,3.974659,1,0.162501,0.162501
1:28:21 PM,30.556,100.969,2.5,0,1.001075,167.772688,2.5,35,4.04603,1,0.163333,0.163333
1:28:22 PM,30.556,100.969,2.7,0,1.001075,167.903229,2.7,35,4.007905,1,0.164047,0.164047
1:28:23 PM,30.557,100.969,3,0,1.001075,167.932816,3,35,4.062305,1,0.16483,0.16483
1:28:24 PM,30.557,100.969,3.1,0,1.001075,167.95045,3.1,35,4.064859,1,0.165696,0.165696
1:28:25 PM,30.557,100.969,3,0,1.001075,168.089522,3,35,4.048868,1,0.166549,0.166549
1:28:26 PM,30.557,100.969,3.3,0,1.001075,168.115975,3.3,35,4.124953,1,0.167377,0.167377
1:28:27 PM,30.557,100.969,2.9,0,1.001075,168.141718,2.9,35,4.146233,1,0.168158,0.168158
1:28:28 PM,30.558,100.969,2.7,0,1.001075,168.266294,2.7,35,4.212074,1,0.168939,0.168939
1:28:29 PM,30.558,100.969,3.1,0,1.001075,168.299141,3.1,35,4.261373,1,0.169745,0.169745
1:28:30 PM,30.558,100.969,2.8,0,1.001075,168.38987,2.8,35,4.323374,1,0.170555,0.170555
1:28:31 PM,30.558,100.969,2.8,0,1.001075,168.483735,2.8,35,4.274135,1,0.171322,0.171322
1:28:32 PM,30.558,100.969,2.7,0,1.001075,168.494268,2.7,35,4.150191,1,0.172147,0.172147
1:28:33 PM,30.559,100.969,2.7,0,1.001075,168.586421,2.7,35,4.225025,1,0.172879,0.172879
1:28:34 PM,30.559,100.969,3.3,0,1.001075,168.722669,3.3,35,4.238048,1,0.173709,0.173709
1:28:35 PM,30.559,100.97,3.2,0,1.001075,168.716986,3.2,35,4.293434,1,0.174649,0.174649
1:28:36 PM,30.559,100.969,3,0,1.001075,168.802748,3,35,4.241932,1,0.175545,0.175545
1:28:37 PM,30.56,100.969,2.9,0,1.001075,168.875431,2.9,35,4.264479,1,0.176398,0.176398
1:28:38 PM,30.56,100.97,2.9,0,1.001075,168.95593,2.9,35,4.248274,1,0.177263,0.177263
1:28:39 PM,30.56,100.97,3.1,0,1.001075,168.88354,3.1,35,4.087017,1,0.1781,0.1781
1:28:40 PM,30.56,100.97,3.3,0,1.001075,168.929055,3.3,35,3.999481,1,0.179014,0.179014
1:28:41 PM,30.561,100.97,3.4,0,1.001075,169.079818,3.4,35,3.990699,1,0.179905,0.179905
1:28:42 PM,30.561,100.97,2.8,0,1.001075,169.172985,2.8,35,3.891318,1,0.180795,0.180795
1:28:43 PM,30.561,100.97,2.7,0,1.001075,169.235432,2.7,35,3.852806,1,0.181567,0.181567
1:28:44 PM,30.561,100.97,2.6,0,1.001075,169.230165,2.6,35,3.863529,1,0.18235,0.18235
1:28:45 PM,30.562,100.97,2.4,0,1.001075,169.389338,2.4,35,3.882556,1,0.183015,0.183015
1:28:46 PM,30.562,100.97,3,0,1.001075,169.423197,3,35,3.937354,1,0.183792,0.183792
1:28:47 PM,30.562,100.97,3.1,0,1.001075,169.472271,3.1,35,3.924017,1,0.18468,0.18468
1:28:48 PM,30.562,100.97,2.7,0,1.001075,169.497309,2.7,35,3.92833,1,0.185451,0.185451
1:28:49 PM,30.563,100.97,3,0,1.001075,169.530165,3,35,3.954562,1,0.186237,0.186237
1:28:50 PM,30.563,100.97,3,0,1.001075,169.725046,3,35,3.99207,1,0.187081,0.187081
1:28:51 PM,30.563,100.97,2.7,0,1.001075,169.740555,2.7,35,3.966296,1,0.18786,0.18786
1:28:52 PM,30.563,100.97,3.1,0,1.001075,169.80372,3.1,35,3.917403,1,0.188704,0.188704
1:28:53 PM,30.563,100.97,3.4,0,1.001075,169.948821,3.4,35,3.955906,1,0.189595,0.189595
1:28:54 PM,30.564,100.97,3.5,0,1.001075,169.933607,3.5,35,3.939471,1,0.190623,0.190623
1:28:55 PM,30.564,100.97,3.4,0,1.001075,170.071018,3.4,35,3.904794,1,0.191581,0.191581
1:28:56 PM,30.564,100.97,3.5,0,1.001075,170.089663,3.5,35,3.905692,1,0.192503,0.192503
1:28:57 PM,30.565,100.97,3.1,0,1.001075,170.149696,3.1,35,3.89419,1,0.193424,0.193424